When you browse on this site, cookies collect data to enhance your experience and personalize the content and advertising you see.
Visit our Privacy Policy to learn more. By continuing to use the site, you agree to this use of cookies and data.
  • In Latvia
  • List of Countries
  • For 7 days
  • Water Temperature
  • Weather Map
  • Weather Widgets
  • user-avatar
    Login

    Hourly Weather Dubendorf

    Today, 14 December, Saturday

    Time Temperature Precipitation Wind Pressure Humidity
    00:00 0°C° 0 mm 3 mps 702 mmHg 88%
    01:00 -1°C° 0 mm 2 mps 702 mmHg 88%
    02:00 +1°C° 0.1 mm 2 mps 702 mmHg 87%
    03:00 0°C° 0.1 mm 3 mps 701 mmHg 86%
    04:00 0°C° 0.1 mm 3 mps 701 mmHg 85%
    05:00 +1°C° 0.7 mm 4 mps 701 mmHg 86%
    06:00 +2°C° 0.7 mm 5 mps 701 mmHg 88%
    07:00 +5°C° 0 mm 5 mps 701 mmHg 90%
    08:00 +4°C° 0.5 mm 6 mps 702 mmHg 87%
    09:00 +4°C° 0.5 mm 6 mps 703 mmHg 85%
    10:00 +4°C° 0.5 mm 7 mps 705 mmHg 83%
    11:00 +4°C° 0.1 mm 7 mps 705 mmHg 80%
    12:00 +5°C° 0.1 mm 6 mps 706 mmHg 78%
    13:00 +5°C° 0.1 mm 6 mps 707 mmHg 75%
    14:00 +6°C° 0 mm 5 mps 707 mmHg 77%
    15:00 +6°C° 0 mm 5 mps 708 mmHg 78%
    16:00 +5°C° 0 mm 4 mps 708 mmHg 80%
    17:00 +6°C° 0 mm 4 mps 709 mmHg 79%
    18:00 +6°C° 0 mm 4 mps 709 mmHg 79%
    19:00 +6°C° 0 mm 4 mps 710 mmHg 78%
    20:00 +6°C° 0 mm 4 mps 710 mmHg 79%
    21:00 +7°C° 0 mm 3 mps 710 mmHg 79%
    22:00 +7°C° 0 mm 2 mps 710 mmHg 79%
    23:00 +6°C° 0.1 mm 2 mps 710 mmHg 80%

    Tomorrow, 15 December, Sunday

    Time Temperature Precipitation Wind Pressure Humidity
    00:00 +6°C° 0.1 mm 2 mps 709 mmHg 80%
    01:00 +5°C° 0.1 mm 2 mps 709 mmHg 80%
    02:00 +6°C° 0 mm 2 mps 709 mmHg 79%
    03:00 +6°C° 0 mm 2 mps 709 mmHg 78%
    04:00 +6°C° 0 mm 2 mps 709 mmHg 76%
    05:00 +6°C° 0 mm 2 mps 709 mmHg 76%
    06:00 +5°C° 0 mm 3 mps 710 mmHg 77%
    07:00 +5°C° 0 mm 3 mps 710 mmHg 77%
    08:00 +7°C° 0 mm 3 mps 710 mmHg 76%
    09:00 +7°C° 0 mm 3 mps 711 mmHg 75%
    10:00 +8°C° 0 mm 3 mps 711 mmHg 74%
    11:00 +9°C° 0 mm 3 mps 711 mmHg 73%
    12:00 +10°C° 0 mm 3 mps 711 mmHg 72%
    13:00 +11°C° 0 mm 3 mps 711 mmHg 71%
    14:00 +10°C° 0 mm 3 mps 712 mmHg 73%
    15:00 +10°C° 0 mm 2 mps 712 mmHg 75%
    16:00 +9°C° 0 mm 2 mps 712 mmHg 77%
    17:00 +8°C° 0 mm 2 mps 712 mmHg 78%
    18:00 +7°C° 0 mm 2 mps 712 mmHg 79%
    19:00 +6°C° 0 mm 2 mps 713 mmHg 80%
    20:00 +7°C° 0 mm 1 mps 713 mmHg 79%
    21:00 +6°C° 0 mm 1 mps 713 mmHg 79%
    22:00 +6°C° 0 mm 1 mps 713 mmHg 78%
    23:00 +6°C° 0 mm 1 mps 713 mmHg 78%

    Day after tomorrow, 16 December, Monday

    Time Temperature Precipitation Wind Pressure Humidity
    00:00 +5°C° 0 mm 1 mps 713 mmHg 78%
    01:00 +5°C° 0 mm 1 mps 713 mmHg 78%
    02:00 +5°C° 0 mm 1 mps 713 mmHg 79%
    03:00 +5°C° 0 mm 1 mps 713 mmHg 80%
    04:00 +5°C° 0 mm 1 mps 713 mmHg 81%
    05:00 +4°C° 0 mm 1 mps 712 mmHg 82%
    06:00 +4°C° 0 mm 1 mps 712 mmHg 83%
    07:00 +4°C° 0 mm 1 mps 712 mmHg 84%
    08:00 +5°C° 0 mm 1 mps 712 mmHg 82%
    09:00 +5°C° 0 mm 1 mps 713 mmHg 81%
    10:00 +6°C° 0 mm 1 mps 713 mmHg 79%
    11:00 +7°C° 0 mm 1 mps 713 mmHg 77%
    12:00 +8°C° 0 mm 1 mps 712 mmHg 74%
    13:00 +9°C° 0 mm 1 mps 712 mmHg 72%
    14:00 +9°C° 0 mm 1 mps 712 mmHg 76%
    15:00 +8°C° 0 mm 1 mps 712 mmHg 79%
    16:00 +6°C° 0 mm 0 mps 712 mmHg 83%
    17:00 +7°C° 0 mm 1 mps 712 mmHg 84%
    18:00 +6°C° 0 mm 1 mps 711 mmHg 85%
    19:00 +6°C° 0 mm 1 mps 711 mmHg 87%
    20:00 +6°C° 0 mm 1 mps 711 mmHg 87%
    21:00 +6°C° 0 mm 1 mps 711 mmHg 87%
    22:00 +6°C° 0 mm 1 mps 711 mmHg 88%
    23:00 +6°C° 0 mm 1 mps 711 mmHg 88%

    17 December, Tuesday

    Time Temperature Precipitation Wind Pressure Humidity
    00:00 +6°C° 0 mm 1 mps 710 mmHg 88%
    01:00 +6°C° 0 mm 1 mps 710 mmHg 87%
    02:00 +6°C° 0 mm 1 mps 710 mmHg 87%
    03:00 +6°C° 0 mm 1 mps 710 mmHg 87%
    04:00 +6°C° 0 mm 1 mps 710 mmHg 87%
    05:00 +6°C° 0 mm 1 mps 710 mmHg 87%
    06:00 +6°C° 0 mm 1 mps 711 mmHg 87%
    07:00 +6°C° 0 mm 1 mps 711 mmHg 87%
    08:00 +7°C° 0 mm 1 mps 711 mmHg 86%
    09:00 +7°C° 0 mm 1 mps 711 mmHg 84%
    10:00 +8°C° 0 mm 1 mps 712 mmHg 83%
    11:00 +9°C° 0 mm 1 mps 712 mmHg 80%
    12:00 +10°C° 0 mm 1 mps 712 mmHg 78%
    13:00 +11°C° 0 mm 1 mps 712 mmHg 75%
    14:00 +10°C° 0 mm 1 mps 712 mmHg 78%
    15:00 +10°C° 0 mm 1 mps 712 mmHg 81%
    16:00 +8°C° 0 mm 0 mps 712 mmHg 84%
    17:00 +8°C° 0 mm 1 mps 712 mmHg 85%
    18:00 +8°C° 0 mm 1 mps 712 mmHg 85%
    19:00 +8°C° 0 mm 1 mps 713 mmHg 86%
    20:00 +7°C° 0 mm 1 mps 713 mmHg 86%
    21:00 +7°C° 0 mm 1 mps 713 mmHg 87%
    22:00 +7°C° 0 mm 1 mps 713 mmHg 87%
    23:00 +7°C° 0 mm 1 mps 714 mmHg 87%

    18 December, Wednesday

    Time Temperature Precipitation Wind Pressure Humidity
    00:00 +7°C° 0 mm 1 mps 714 mmHg 87%
    01:00 +7°C° 0 mm 1 mps 714 mmHg 87%
    02:00 +7°C° 0 mm 1 mps 714 mmHg 86%
    03:00 +7°C° 0 mm 1 mps 714 mmHg 86%
    04:00 +7°C° 0 mm 1 mps 714 mmHg 86%
    05:00 +6°C° 0 mm 0 mps 714 mmHg 87%
    06:00 +5°C° 0 mm 0 mps 714 mmHg 87%
    07:00 +5°C° 0 mm 0 mps 714 mmHg 88%
    08:00 +6°C° 0 mm 0 mps 715 mmHg 87%
    09:00 +6°C° 0 mm 0 mps 715 mmHg 85%
    10:00 +8°C° 0 mm 1 mps 715 mmHg 84%
    11:00 +9°C° 0 mm 1 mps 715 mmHg 82%
    12:00 +9°C° 0 mm 1 mps 715 mmHg 79%
    13:00 +10°C° 0 mm 1 mps 714 mmHg 77%
    14:00 +9°C° 0 mm 1 mps 714 mmHg 80%
    15:00 +9°C° 0 mm 1 mps 714 mmHg 83%
    16:00 +8°C° 0 mm 1 mps 714 mmHg 87%
    17:00 +7°C° 0 mm 0 mps 714 mmHg 88%
    18:00 +6°C° 0 mm 0 mps 714 mmHg 89%
    19:00 +6°C° 0 mm 0 mps 714 mmHg 89%
    20:00 +5°C° 0 mm 0 mps 714 mmHg 89%
    21:00 +5°C° 0 mm 0 mps 714 mmHg 89%
    22:00 +5°C° 0 mm 0 mps 714 mmHg 89%
    23:00 +5°C° 0 mm 0 mps 713 mmHg 90%

    19 December, Thursday

    Time Temperature Precipitation Wind Pressure Humidity
    00:00 +5°C° 0 mm 0 mps 713 mmHg 90%
    01:00 +5°C° 0 mm 0 mps 712 mmHg 90%
    02:00 +4°C° 0 mm 0 mps 712 mmHg 90%
    03:00 +4°C° 0 mm 0 mps 711 mmHg 91%
    04:00 +4°C° 0 mm 0 mps 711 mmHg 91%
    05:00 +4°C° 0 mm 0 mps 711 mmHg 91%
    06:00 +4°C° 0 mm 0 mps 711 mmHg 91%
    07:00 +4°C° 0 mm 0 mps 710 mmHg 91%
    08:00 +5°C° 0 mm 0 mps 711 mmHg 89%
    09:00 +5°C° 0 mm 0 mps 711 mmHg 87%
    10:00 +6°C° 0 mm 0 mps 711 mmHg 85%
    11:00 +7°C° 0 mm 0 mps 710 mmHg 82%
    12:00 +8°C° 0 mm 0 mps 710 mmHg 79%
    13:00 +8°C° 0 mm 0 mps 710 mmHg 76%
    14:00 +8°C° 0 mm 0 mps 710 mmHg 78%
    15:00 +7°C° 0 mm 0 mps 709 mmHg 81%
    16:00 +7°C° 0 mm 0 mps 709 mmHg 84%
    17:00 +6°C° 0 mm 0 mps 709 mmHg 85%
    18:00 +5°C° 0 mm 0 mps 709 mmHg 87%
    19:00 +5°C° 0 mm 0 mps 709 mmHg 88%
    20:00 +4°C° 0 mm 0 mps 709 mmHg 88%
    21:00 +4°C° 0 mm 0 mps 709 mmHg 87%
    22:00 +4°C° 0 mm 0 mps 709 mmHg 87%
    23:00 +4°C° 0 mm 0 mps 708 mmHg 87%
    Show more